Back to catalog

THORAD DELTA 1 DEB

AliveSSO
NORAD 8142·DEBRIS·🇺🇸 United States

Launched Nov 15, 1974 from Vandenberg Space Force Base

Loading…

Next Passes (next 24 hours)

TLE

FreshSource: Space-Track

Epoch: Sep 14, 2026, 15:02 UTC

1 08142U 74089L   26257.62662828  .00022781  00000-0  10188+0 0  9992
2 08142 101.2756 146.3882 0470060 131.4028 261.7900 12.48855977293619

Track THORAD DELTA 1 DEB in real time with AllMySat

Download on the App Store